Location: Peebles
(55.6412°N, 3.1714°W)
Time: 14:45:41
(UTC+01:00)

FLOCK 4S 26 - Pass Details

Date: 07 July 2022
Orbit: 498 x 512 km, 97.4° (Epoch: 17 August)

Event Time Altitude Azimuth Distance (km) Brightness Sun altitude
Rises 23:11:57 0° 209° (SSW) 2,633 ? -7.4°
Reaches altitude 10° 23:14:43 10° 232° (SW) 1,751 ? -7.6°
Maximum altitude 23:17:06 16° 271° (W) 1,414 ? -7.7°
Drops below altitude 10° 23:19:31 10° 311° (NW) 1,758 ? -7.9°
Sets 23:22:18 0° 334° (NNW) 2,649 ? -8.1°
